Regional Weather Roundup
Issued by NWS

Home | Current Version | Previous Version | Graphics & Text | Print | Product List | Glossary On
Versions: 1 2 3 4 5 6 7 8 9 10 11 12 13 14 15 16 17 18 19 20 21 22 23 24 25 26 27
000
ASUS45 KBOI 152010
RWRID
WEATHER ROUNDUP FOR IDAHO
NATIONAL WEATHER SERVICE BOISE ID
200 PM MDT TUE APR 15 2014

NOTE: "FAIR" INDICATES FEW OR NO CLOUDS BELOW 12000 FEET
WITH NO SIGNIFICANT WEATHER AND/OR OBSTRUCTIONS TO VISIBILITY

IDZ012-014-152100-
SOUTHWEST IDAHO


CITY           SKY/WX    TMP DP  RH WIND       PRES   REMARKS
BOISE          MOSUNNY   58  26  29 NW20G28   29.98S
CALDWELL       MOSUNNY   59  27  29 NW21      30.00F
MOUNTAIN HOME  MOSUNNY   60  24  25 NW26G33   29.95R
$$

IDZ016-017-152100-
SOUTHCENTRAL IDAHO


CITY           SKY/WX    TMP DP  RH WIND       PRES   REMARKS
BURLEY         LGT RAIN  57  27  31 W22G33    29.89F
JEROME         CLOUDY    57  28  33 SW24G37   29.91F
TWIN FALLS     CLOUDY    59  27  29 W25G33    29.92F
$$

IDZ019>023-152100-
SOUTHEAST IDAHO


CITY           SKY/WX    TMP DP  RH WIND       PRES   REMARKS
IDAHO FALLS    CLOUDY    58  14  17 SW26G38   29.75F
POCATELLO      PTSUNNY   60  15  17 W36G48    29.84F
REXBURG        CLOUDY    56  13  18 SW24G38   29.72F
$$

IDZ006-010-011-018-031-032-152100-
CENTRAL IDAHO MOUNTAINS


CITY           SKY/WX    TMP DP  RH WIND       PRES   REMARKS
MCCALL         PTSUNNY   48  19  31 W13G25    29.93S
HAILEY         MOSUNNY   54  21  28 MISG      29.83F
STANLEY          N/A     40  20  44 NW10G21   29.91S WCI  33
SALMON         CLOUDY    46  27  46 NE9       29.83S
CHALLIS        PTSUNNY   53  22  29 NW24G31   29.83R
$$

IDZ002-004-006-007-026-152100-
NORTHERN IDAHO


CITY           SKY/WX    TMP DP  RH WIND       PRES   REMARKS
LEWISTON       PTSUNNY   57  22  25 W16G26    30.00F
LOWELL           N/A     46  41  82 CALM      30.03S
COEUR D`ALENE  PTSUNNY   52  30  43 W9        29.91S
MULLAN PASS    CLOUDY    28  28 100 NW8G25    29.86R FOG     WCI  20
$$



USA.gov is the U.S. government's official web portal to all federal, state and local government web resources and services.